Weather History for KFIT - October, 2013

Change the Weather History Date:

Sunday, October 20, 2013

  Actual Average (KORH) Record (KORH)
Temperature  
Mean Temperature 50 °F 49 °F  
Max Temperature 62 °F 57 °F 76 °F (1963)
Min Temperature 37 °F 40 °F 21 °F (1972)
Degree Days  
Heating Degree Days 15 16  
Month to date heating degree days 267  
Since 1 July heating degree days 460  
Cooling Degree Days 0 0  
Month to date cooling degree days 0  
Year to date cooling degree days 468  
Moisture  
Dew Point 37 °F    
Average Humidity 59    
Maximum Humidity 86    
Minimum Humidity 31    
Precipitation  
Precipitation 0.00 in 0.14 in 3.39 in (1996)
Month to date precipitation 3.10  
Year to date precipitation 38.39  
Sea Level Pressure  
Sea Level Pressure 29.86 in    
Wind  
Wind Speed 7 mph (WNW)    
Max Wind Speed 18 mph    
Max Gust Speed 31 mph    
Visibility 10 miles    
Events Rain    
T = Trace of Precipitation, MM = Missing Value Source: NWS Daily Summary

Daily Weather History Graph

Daily Weather History Graph

Search for Another Location

Airport or City:

Trip Planner

Search our weather history database for the weather conditions in past years. The results will help you decide how hot, cold, wet, or windy it might be!

Date:

Astronomy

Oct. 20, 2013 Rise Set
Actual Time 7:06 AM EDT 5:56 PM EDT
Civil Twilight 6:37 AM EDT 6:25 PM EDT
Nautical Twilight 6:04 AM EDT 6:57 PM EDT
Astronomical Twilight 5:32 AM EDT 7:30 PM EDT
Moon 7:00 PM EDT (10/20) 8:43 AM EDT (10/20)
Length of Visible Light 11h 47m
Length of Day
10h 50m
Full, 97% of the Moon is Illuminated
Oct 20
Full
Oct 26
Last Quarter
Nov 3
New
Nov 10
First Quarter
Nov 17
Full

Hourly Weather History & Observations

Time (EDT) Temp. Windchill Dew Point Humidity Pressure Visibility Wind Dir Wind Speed Gust Speed Precip Events Conditions
12:52 AM 55.9 °F - 46.0 °F 69% 29.74 in 10.0 mi South 4.6 mph - N/A   Overcast
1:52 AM 54.0 °F - 48.0 °F 80% 29.72 in 10.0 mi Calm Calm - 0.00 in Rain Light Rain
2:52 AM 54.0 °F - 48.9 °F 83% 29.71 in 10.0 mi Variable 3.5 mph - 0.00 in   Mostly Cloudy
3:52 AM 54.0 °F - 48.9 °F 83% 29.71 in 10.0 mi SW 6.9 mph - N/A   Clear
4:52 AM 53.1 °F - 48.0 °F 83% 29.72 in 10.0 mi Calm Calm - N/A   Clear
5:52 AM 53.1 °F - 45.0 °F 74% 29.75 in 10.0 mi WNW 11.5 mph 18.4 mph N/A   Partly Cloudy
6:52 AM 50.0 °F - 39.0 °F 66% 29.78 in 10.0 mi WNW 13.8 mph 24.2 mph N/A   Clear
7:52 AM 48.9 °F - 37.9 °F 66% 29.80 in 10.0 mi West 9.2 mph 19.6 mph N/A   Clear
8:52 AM 52.0 °F - 37.0 °F 57% 29.83 in 10.0 mi West 12.7 mph 19.6 mph N/A   Clear
9:52 AM 53.1 °F - 36.0 °F 52% 29.84 in 10.0 mi WNW 18.4 mph 31.1 mph N/A   Clear
10:52 AM 55.9 °F - 35.1 °F 45% 29.86 in 10.0 mi WNW 16.1 mph 23.0 mph N/A   Clear
11:52 AM 57.9 °F - 34.0 °F 41% 29.87 in 10.0 mi WNW 18.4 mph 25.3 mph N/A   Clear
12:52 PM 60.1 °F - 32.0 °F 35% 29.86 in 10.0 mi West 11.5 mph 24.2 mph N/A   Clear
1:52 PM 60.1 °F - 30.9 °F 33% 29.87 in 10.0 mi West 16.1 mph 24.2 mph N/A   Clear
2:52 PM 61.0 °F - 30.0 °F 31% 29.88 in 10.0 mi WNW 18.4 mph 27.6 mph N/A   Partly Cloudy
3:52 PM 60.1 °F - 28.9 °F 31% 29.90 in 10.0 mi WNW 16.1 mph 24.2 mph N/A   Scattered Clouds
4:52 PM 59.0 °F - 28.9 °F 32% 29.92 in 10.0 mi WNW 9.2 mph - N/A   Mostly Cloudy
5:52 PM 55.0 °F - 30.0 °F 38% 29.94 in 10.0 mi WNW 6.9 mph - N/A   Clear
6:52 PM 50.0 °F - 33.1 °F 52% 29.96 in 10.0 mi Calm Calm - N/A   Clear
7:52 PM 46.0 °F - 34.0 °F 63% 29.98 in 10.0 mi Calm Calm - N/A   Clear
8:52 PM 43.0 °F - 34.0 °F 71% 30.01 in 10.0 mi Calm Calm - N/A   Clear
9:52 PM 41.0 °F - 34.0 °F 76% 30.03 in 10.0 mi Calm Calm - N/A   Clear
10:52 PM 39.9 °F 36.7 °F 34.0 °F 79% 30.04 in 10.0 mi NNW 4.6 mph - N/A   Clear
11:52 PM 37.0 °F 34.5 °F 33.1 °F 86% 30.04 in 10.0 mi NW 3.5 mph - N/A   Clear